EN

Hourly Weather Trelew

Today, 23 April, Friday

Time Temperature Precipitation Wind Pressure Humidity
00:00 +14°C° 0 mm 2 mps 758 mmHg 64%
01:00 +13°C° 0 mm 3 mps 758 mmHg 70%
02:00 +13°C° 0 mm 3 mps 758 mmHg 77%
03:00 +13°C° 0 mm 3 mps 757 mmHg 80%
04:00 +13°C° 0 mm 3 mps 757 mmHg 84%
05:00 +13°C° 0 mm 4 mps 757 mmHg 87%
06:00 +13°C° 0 mm 4 mps 757 mmHg 86%
07:00 +13°C° 0 mm 4 mps 757 mmHg 85%
08:00 +13°C° 0 mm 4 mps 757 mmHg 84%
09:00 +15°C° 0 mm 4 mps 756 mmHg 71%
10:00 +17°C° 0 mm 4 mps 756 mmHg 57%
11:00 +19°C° 0 mm 4 mps 756 mmHg 44%
12:00 +19°C° 0 mm 5 mps 756 mmHg 45%
13:00 +18°C° 0 mm 7 mps 756 mmHg 46%
14:00 +19°C° 0 mm 9 mps 756 mmHg 48%
15:00 +17°C° 0.3 mm 8 mps 756 mmHg 52%
16:00 +16°C° 0.3 mm 7 mps 757 mmHg 57%
17:00 +14°C° 0.3 mm 7 mps 758 mmHg 62%
18:00 +12°C° 0 mm 7 mps 758 mmHg 65%
19:00 +13°C° 0 mm 6 mps 759 mmHg 68%
20:00 +11°C° 0 mm 6 mps 760 mmHg 72%
21:00 +11°C° 0 mm 6 mps 760 mmHg 73%
22:00 +10°C° 0 mm 6 mps 760 mmHg 75%
23:00 +10°C° 0 mm 5 mps 761 mmHg 77%

Tomorrow, 24 April, Saturday

Time Temperature Precipitation Wind Pressure Humidity
00:00 +10°C° 0 mm 5 mps 761 mmHg 77%
01:00 +11°C° 0 mm 4 mps 761 mmHg 77%
02:00 +11°C° 0 mm 4 mps 762 mmHg 77%
03:00 +11°C° 0 mm 4 mps 762 mmHg 77%
04:00 +11°C° 0 mm 4 mps 762 mmHg 76%
05:00 +11°C° 0 mm 4 mps 762 mmHg 76%
06:00 +11°C° 0 mm 3 mps 763 mmHg 73%
07:00 +11°C° 0 mm 3 mps 763 mmHg 71%
08:00 +12°C° 0 mm 2 mps 764 mmHg 69%
09:00 +13°C° 0 mm 2 mps 764 mmHg 63%
10:00 +14°C° 0 mm 1 mps 764 mmHg 57%
11:00 +15°C° 0 mm 1 mps 764 mmHg 52%
12:00 +16°C° 0 mm 1 mps 764 mmHg 48%
13:00 +18°C° 0 mm 1 mps 764 mmHg 45%
14:00 +18°C° 0 mm 1 mps 764 mmHg 41%
15:00 +18°C° 0 mm 1 mps 764 mmHg 41%
16:00 +18°C° 0 mm 1 mps 764 mmHg 42%
17:00 +17°C° 0 mm 2 mps 764 mmHg 42%
18:00 +17°C° 0 mm 2 mps 764 mmHg 48%
19:00 +16°C° 0 mm 3 mps 764 mmHg 54%
20:00 +14°C° 0 mm 4 mps 764 mmHg 61%
21:00 +14°C° 0 mm 4 mps 765 mmHg 66%
22:00 +13°C° 0 mm 4 mps 765 mmHg 71%
23:00 +13°C° 0 mm 4 mps 765 mmHg 76%

Day after tomorrow, 25 April, Sunday

Time Temperature Precipitation Wind Pressure Humidity
00:00 +13°C° 0 mm 4 mps 765 mmHg 77%
01:00 +12°C° 0 mm 4 mps 764 mmHg 78%
02:00 +12°C° 0 mm 5 mps 764 mmHg 79%
03:00 +12°C° 0 mm 5 mps 764 mmHg 79%
04:00 +12°C° 0 mm 5 mps 764 mmHg 78%
05:00 +12°C° 0 mm 5 mps 763 mmHg 78%
06:00 +12°C° 0 mm 5 mps 763 mmHg 74%
07:00 +12°C° 0 mm 5 mps 763 mmHg 71%
08:00 +11°C° 0 mm 6 mps 763 mmHg 67%
09:00 +14°C° 0 mm 6 mps 763 mmHg 59%
10:00 +16°C° 0 mm 7 mps 762 mmHg 51%
11:00 +17°C° 0 mm 8 mps 762 mmHg 43%
12:00 +20°C° 0 mm 8 mps 761 mmHg 39%
13:00 +21°C° 0 mm 8 mps 761 mmHg 35%
14:00 +22°C° 0 mm 8 mps 760 mmHg 32%
15:00 +21°C° 0 mm 8 mps 760 mmHg 35%
16:00 +21°C° 0 mm 8 mps 759 mmHg 38%
17:00 +20°C° 0 mm 8 mps 759 mmHg 41%
18:00 +18°C° 0 mm 8 mps 759 mmHg 43%
19:00 +17°C° 0 mm 8 mps 759 mmHg 46%
20:00 +17°C° 0 mm 9 mps 759 mmHg 49%
21:00 +16°C° 0 mm 8 mps 759 mmHg 50%
22:00 +16°C° 0 mm 8 mps 759 mmHg 51%
23:00 +15°C° 0 mm 7 mps 759 mmHg 52%

26 April, Monday

Time Temperature Precipitation Wind Pressure Humidity
00:00 +15°C° 0 mm 6 mps 759 mmHg 54%
01:00 +15°C° 0 mm 6 mps 759 mmHg 57%
02:00 +14°C° 0 mm 5 mps 758 mmHg 59%
03:00 +14°C° 0 mm 5 mps 758 mmHg 60%
04:00 +14°C° 0 mm 4 mps 758 mmHg 61%
05:00 +14°C° 0 mm 4 mps 758 mmHg 62%
06:00 +14°C° 0 mm 3 mps 758 mmHg 59%
07:00 +14°C° 0 mm 3 mps 758 mmHg 57%
08:00 +14°C° 0 mm 3 mps 758 mmHg 55%
09:00 +17°C° 0 mm 3 mps 758 mmHg 48%
10:00 +19°C° 0 mm 3 mps 758 mmHg 41%
11:00 +20°C° 0 mm 3 mps 758 mmHg 35%
12:00 +21°C° 0 mm 3 mps 758 mmHg 32%
13:00 +22°C° 0 mm 3 mps 758 mmHg 30%
14:00 +24°C° 0 mm 3 mps 757 mmHg 27%
15:00 +24°C° 0 mm 3 mps 757 mmHg 29%
16:00 +22°C° 0 mm 3 mps 757 mmHg 30%
17:00 +22°C° 0 mm 3 mps 757 mmHg 31%
18:00 +21°C° 0 mm 2 mps 757 mmHg 34%
19:00 +20°C° 0 mm 2 mps 757 mmHg 36%
20:00 +19°C° 0 mm 2 mps 757 mmHg 38%
21:00 +19°C° 0 mm 2 mps 757 mmHg 39%
22:00 +19°C° 0 mm 3 mps 757 mmHg 40%
23:00 +18°C° 0 mm 3 mps 757 mmHg 41%

27 April, Tuesday

Time Temperature Precipitation Wind Pressure Humidity
00:00 +18°C° 0 mm 3 mps 756 mmHg 43%
01:00 +18°C° 0 mm 3 mps 756 mmHg 45%
02:00 +17°C° 0 mm 3 mps 756 mmHg 47%
03:00 +17°C° 0 mm 4 mps 755 mmHg 45%
04:00 +17°C° 0 mm 4 mps 755 mmHg 44%
05:00 +15°C° 0 mm 4 mps 754 mmHg 42%
06:00 +15°C° 0 mm 4 mps 754 mmHg 43%
07:00 +15°C° 0 mm 4 mps 754 mmHg 45%
08:00 +15°C° 0 mm 4 mps 754 mmHg 46%
09:00 +19°C° 0 mm 5 mps 754 mmHg 39%
10:00 +21°C° 0 mm 5 mps 753 mmHg 33%
11:00 +23°C° 0 mm 6 mps 753 mmHg 26%
12:00 +26°C° 0 mm 6 mps 753 mmHg 24%
13:00 +27°C° 0 mm 6 mps 753 mmHg 22%
14:00 +28°C° 0 mm 7 mps 752 mmHg 20%
15:00 +28°C° 0 mm 5 mps 752 mmHg 23%
16:00 +27°C° 0 mm 4 mps 753 mmHg 26%
17:00 +26°C° 0 mm 3 mps 753 mmHg 29%
18:00 +25°C° 0 mm 3 mps 753 mmHg 32%
19:00 +24°C° 0 mm 2 mps 753 mmHg 35%
20:00 +21°C° 0 mm 2 mps 753 mmHg 38%
21:00 +21°C° 0 mm 3 mps 753 mmHg 39%
22:00 +21°C° 0 mm 3 mps 753 mmHg 40%
23:00 +20°C° 0 mm 4 mps 753 mmHg 41%

28 April, Wednesday

Time Temperature Precipitation Wind Pressure Humidity
00:00 +20°C° 0 mm 4 mps 753 mmHg 42%
01:00 +20°C° 0 mm 5 mps 753 mmHg 42%
02:00 +20°C° 0 mm 6 mps 753 mmHg 43%
03:00 +19°C° 0 mm 6 mps 754 mmHg 46%
04:00 +19°C° 0 mm 6 mps 754 mmHg 49%
05:00 +17°C° 0 mm 6 mps 755 mmHg 52%
06:00 +17°C° 0 mm 6 mps 756 mmHg 52%
07:00 +16°C° 0 mm 6 mps 756 mmHg 51%
08:00 +16°C° 0 mm 6 mps 757 mmHg 51%
09:00 +17°C° 0 mm 7 mps 757 mmHg 44%
10:00 +17°C° 0 mm 9 mps 757 mmHg 37%
11:00 +18°C° 0 mm 10 mps 757 mmHg 29%
12:00 +19°C° 0 mm 10 mps 757 mmHg 29%
13:00 +19°C° 0 mm 10 mps 757 mmHg 29%
14:00 +21°C° 0 mm 10 mps 757 mmHg 28%
15:00 +20°C° 0 mm 8 mps 756 mmHg 29%
16:00 +20°C° 0 mm 7 mps 756 mmHg 31%
17:00 +20°C° 0 mm 5 mps 756 mmHg 32%
18:00 +19°C° 0 mm 4 mps 756 mmHg 34%
19:00 +18°C° 0 mm 3 mps 757 mmHg 37%
20:00 +17°C° 0 mm 2 mps 757 mmHg 39%
21:00 +17°C° 0 mm 3 mps 757 mmHg 39%
22:00 +17°C° 0 mm 4 mps 758 mmHg 39%
23:00 +17°C° 0 mm 4 mps 758 mmHg 39%
Show more

We Need Your Consent

Meteoprog and our Service Providers may store and access personal data such as cookies, device identifiers or other similar technologies on your device and process such data to personalise content and ads, as well as provide social media features and to analyse the traffic.

  • Store and/or access information on your device

    Cookies, device identifiers or other information can be stored or accessed on your device for the purposes indicated above.

  • Personalised ads and content, ad and content measurement, audience insights, and products development

    Ads and content can be personalised based on a profile. More data can be added to better personalise ads and content. Ad and content performance can be measured. Insights about the audience who saw the ads and content can be derived. Such data can be used to develop or improve user’s experience, systems and software.

By clicking ‘I Agree’ you will allow the use of indicated cookies, device identifiers, web beacons or other similar technologies. Your settings can be changed in the browser on your device.

For certain purposes, legitimate interests may be relied on, rather than consent. You can read more about this in our Privacy and Cookie Policy.